Location: Caltech
(34.1382°N, 118.1253°W)
Time: 04:13:42
(UTC-07:00)

Cosmos 1833 Rocket - Visible Passes

Search period start: 01 September 2014 00:00
Search period end: 11 September 2014 00:00
Orbit: 834 x 839 km, 71.0° (Epoch: 31 August)

Date Brightness Start Highest point End Pass type
(mag) Time Alt. Az. Time Alt. Az. Time Alt. Az.
01 Sep 4.5 20:39:30 10° NNE 20:42:27 14° NE 20:43:04 14° ENE visible
01 Sep 3.9 22:21:20 10° NNW 22:24:46 39° NW 22:24:46 39° NW visible
02 Sep 4.5 20:23:14 10° NNE 20:25:48 13° NE 20:27:02 12° ENE visible
02 Sep 3.5 22:04:43 10° NNW 22:08:45 48° NNW 22:08:45 48° NNW visible
03 Sep 4.6 20:07:04 10° NNE 20:09:08 12° NE 20:11:03 10° ENE visible
03 Sep 3.0 21:48:08 10° NNW 21:52:46 62° NNW 21:52:46 62° NNW visible
04 Sep 4.6 19:51:05 10° NE 19:52:28 11° NE 19:53:52 10° ENE visible
04 Sep 2.6 21:31:33 10° NNW 21:36:51 80° N 21:36:51 80° N visible
05 Sep 2.5 21:14:58 10° NNW 21:20:36 80° ENE 21:21:00 75° ESE visible
06 Sep 2.6 20:58:23 10° NNW 21:04:01 73° ENE 21:05:14 54° SE visible
06 Sep 5.3 22:45:25 10° WNW 22:46:58 12° W 22:46:58 12° W visible
07 Sep 2.6 20:41:49 10° NNW 20:47:26 67° ENE 20:49:33 38° SE visible
07 Sep 5.2 22:28:15 10° WNW 22:30:40 13° W 22:31:17 13° WSW visible
08 Sep 2.7 20:25:16 10° NNW 20:30:50 61° ENE 20:33:58 26° SE visible
08 Sep 5.1 22:11:15 10° WNW 22:14:08 14° W 22:15:43 13° WSW visible
09 Sep 2.8 20:08:43 10° NNW 20:14:14 56° ENE 20:18:31 17° SE visible
09 Sep 5.1 21:54:20 10° WNW 21:57:36 16° W 22:00:16 12° SW visible
10 Sep 2.9 19:52:10 10° N 19:57:39 51° ENE 20:03:05 10° SE visible
10 Sep 5.1 21:37:28 10° WNW 21:41:04 18° W 21:44:40 10° SW visible
